Location: Unspecified
(0.0000°N, 0.0000°E)
Time: 01:28:23
(UTC+00:00)

Tiros 1 - Pass Details

Date: 23 November 2019
Orbit: 630 x 664 km, 48.4° (Epoch: 11 December)

Event Time Altitude Azimuth Distance (km) Brightness Sun altitude
Rises 10:03:04 0° 234° (SW) 2,948 10.5 57.6°
Reaches altitude 10° 10:05:33 10° 242° (WSW) 2,031 9.7 58.1°
Maximum altitude 10:09:50 36° 309° (NW) 1,005 8.3 58.9°
Drops below altitude 10° 10:14:06 10° 16° (NNE) 2,005 9.7 59.6°
Sets 10:16:33 0° 24° (NNE) 2,906 10.4 60.1°
